This is the latest recevied weather packets stored in our database for station/object N1OTX. If no packets are shown the sender has not sent any weather packets the latest 10 day(s).
| Time | Temp. | Humidity | Pressure | Rain* | Wind** | Luminosity | Snow |
|---|---|---|---|---|---|---|---|
| 1777865731 | 1.67° C | 82% | 1010.1 hPa | 0 mm | - | 0 W/m² | - |
| 1777863930 | 2.22° C | 82% | 1010 hPa | 0 mm | - | 0 W/m² | - |
| 1777860930 | 3.33° C | 76% | 1009.9 hPa | 0 mm | - | 0 W/m² | - |
| 1777857930 | 5° C | 67% | 1009.6 hPa | 0 mm | - | 0 W/m² | - |
| 1777856730 | 5.56° C | 64% | 1009.3 hPa | 0 mm | - | 0 W/m² | - |
| 1777855829 | 6.11° C | 59% | 1009.1 hPa | 0 mm | - | 0 W/m² | - |
| 1777853730 | 8.33° C | 49% | 1008.7 hPa | 0 mm | - | 0 W/m² | - |
| 1777851629 | 10.56° C | 37% | 1008.4 hPa | 0 mm | - | 6 W/m² | - |
| 1777848030 | 11.11° C | 36% | 1007.6 hPa | 0 mm | - | 42 W/m² | - |
| 1777847131 | 11.11° C | 36% | 1007.3 hPa | 0 mm | - | 58 W/m² | - |
| 1777844751 | 11.11° C | 36% | 1006.9 hPa | 0 mm | - | 96 W/m² | - |
| 1777841731 | 11.67° C | 36% | 1006 hPa | 0 mm | - | 125 W/m² | - |
| 1777841431 | 11.67° C | 37% | 1006 hPa | 0 mm | - | 139 W/m² | - |
| 1777840530 | 11.67° C | 34% | 1005.9 hPa | 0 mm | - | 143 W/m² | - |
| 1777839329 | 11.67° C | 37% | 1005.7 hPa | 0 mm | - | 171 W/m² | - |
| 1777838429 | 11.67° C | 40% | 1005.8 hPa | 0 mm | - | 276 W/m² | - |
| 1777838129 | 11.67° C | 40% | 1005.8 hPa | 0 mm | - | 228 W/m² | - |
| 1777836351 | 11.67° C | 42% | 1005.9 hPa | 0 mm | - | 130 W/m² | - |
| 1777835730 | 12.22° C | 42% | 1005.9 hPa | 0 mm | - | 197 W/m² | - |
| 1777835130 | 12.22° C | 43% | 1005.8 hPa | 0 mm | - | 374 W/m² | - |
| 1777833930 | 11.67° C | 44% | 1005.9 hPa | 0 mm | - | 363 W/m² | - |
| 1777833329 | 11.67° C | 45% | 1005.9 hPa | 0 mm | - | 366 W/m² | - |
| 1777831230 | 10.56° C | 50% | 1006.1 hPa | 0 mm | - | 216 W/m² | - |
| 1777830330 | 11.11° C | 48% | 1006 hPa | 0 mm | - | 287 W/m² | - |
| 1777828529 | 10.56° C | 47% | 1006 hPa | 0 mm | - | 369 W/m² | - |
* Rain latest hour (hover to see other rain measurements)
** Current wind speed in m/s (hover to see current wind gust speed)